Regional Weather Roundup
Issued by NWS

Home | Current Version | Previous Version | Text Only | Print | Product List | Glossary Off
Versions: 1 2 3 4 5 6 7 8 9 10 11 12 13 14 15 16 17 18 19 20 21 22 23 24 25 26 27 28 29 30 31 32 33 34 35 36 37 38 39 40 41 42 43 44 45 46 47 48 49 50

000
ASUS43 KTOP 070708
RWRKS

WEATHER ROUNDUP FOR KANSAS
NATIONAL WEATHER SERVICE GOODLAND KS
100 AM CST WED DEC 07 2016

NOTE:  "FAIR" INDICATES FEW OR NO CLOUDS BELOW 12,000 FEET WITH NO
SIGNIFICANT WEATHER AND/OR OBSTRUCTIONS TO VISIBILITY.

KSZ001>006-013>018-027>032-041>047-070800-
NORTHWEST KANSAS

CITY           SKY/WX    TMP DP  RH WIND       PRES   REMARKS
GOODLAND       CLOUDY    24   2  38 SE6       29.97R
HAYS           CLOUDY    28  18  66 E3        30.10R
HILL CITY      CLOUDY    22  14  71 CALM      30.08F
RUSSELL        CLOUDY    28  16  60 NE3       30.08F
$$

KSZ061>065-074>080-084>089-070800-
SOUTHWEST KANSAS

CITY           SKY/WX    TMP DP  RH WIND       PRES   REMARKS
DODGE CITY     CLOUDY    22  14  71 E6        30.04F
ELKHART          N/A     17   3  54 SE13        N/A  WCI   4
GARDEN CITY    CLEAR     24   9  52 SE16      29.99F WCI  11
GREAT BEND     CLOUDY    28  23  81 CALM      30.11S
LIBERAL        CLEAR     25   9  50 SE10      29.97S WCI  15
PRATT          CLOUDY    29  16  57 E3        30.10S
$$

KSZ066>073-081>083-090>101-070800-
SOUTHEAST KANSAS

CITY           SKY/WX    TMP DP  RH WIND       PRES   REMARKS
CHANUTE        CLOUDY    30  24  78 CALM      30.17R
COFFEYVILLE    PTCLDY    30  22  72 N6        30.16S
HUTCHINSON     CLOUDY    32  20  61 W3        30.13R
MEDICINE LODGE   N/A     31  19  61 E5        30.10F
NEWTON         CLOUDY    30  21  69 E8        30.11F
PARSONS        CLOUDY    30  23  75 CALM      30.17R
WICHITA INTL   CLOUDY    35  16  45 E7        30.13R
WICHITA JABRA  CLOUDY    32  20  61 E3        30.12S
WICHITA MCCONL PTCLDY    33  19  54 E5        30.12R
WINFIELD       CLOUDY    35  16  45 E7        30.15R
$$

KSZ007>012-019>026-033>040-048>060-102>105-070800-
NORTHEAST KANSAS

CITY           SKY/WX    TMP DP  RH WIND       PRES   REMARKS
CONCORDIA      CLOUDY    27  16  63 NE6       30.16R
EMPORIA        CLOUDY    30  22  72 N7        30.14S
MANHATTAN      CLOUDY    28  22  78 N3        30.17S
MARYSVILLE     CLOUDY    27  18  69 N7        30.16S
OLATHE IND     CLOUDY    32  15  49 N12       30.14S WCI  23
OLATHE EXE     CLOUDY    32  12  43 N10       30.14R WCI  24
SALINA         CLOUDY    32  20  61 NE5       30.14F
TOPEKA BILLARD CLOUDY    31  17  56 NW6       30.18R
TOPEKA FORBES  CLOUDY    31  19  61 N7        30.15S
$$



USA.gov is the U.S. government's official web portal to all federal, state and local government web resources and services.